Regional Weather Roundup
Issued by NWS

Home | Current Version | Previous Version | Text Only | Print | Product List | Glossary Off
Versions: 1 2 3 4 5 6 7 8 9 10 11 12 13 14 15 16 17 18 19 20 21 22 23 24 25 26 27 28 29 30 31 32 33 34 35 36 37 38 39 40 41 42 43 44 45 46 47 48 49 50

000
ASUS45 KBOI 250110
RWRID

IDAHO REGIONAL WEATHER ROUNDUP
NATIONAL WEATHER SERVICE BOISE ID
700 PM MDT MON APR 24 2017

NOTE: "FAIR" INDICATES FEW OR NO CLOUDS BELOW 12000 FEET
WITH NO SIGNIFICANT WEATHER AND/OR OBSTRUCTIONS TO VISIBILITY

IDZ012-014-250200-
SOUTHWEST IDAHO


CITY           SKY/WX    TMP DP  RH WIND       PRES   REMARKS
BOISE          CLOUDY    50  39  66 W15       29.72R
CALDWELL       CLOUDY    51  40  65 SW15      29.71R
MOUNTAIN HOME  PTSUNNY   52  40  64 W14       29.71S
$$

IDZ016-017-250200-
SOUTHCENTRAL IDAHO


CITY           SKY/WX    TMP DP  RH WIND       PRES   REMARKS
BURLEY         LGT RAIN  50  36  58 W17G26    29.68R
JEROME         MOSUNNY   44  37  76 SW29G36   29.71R
TWIN FALLS     LGT RAIN  41  40  96 SW17G26   29.73R
$$

IDZ019>023-250200-
SOUTHEAST IDAHO


CITY           SKY/WX    TMP DP  RH WIND       PRES   REMARKS
IDAHO FALLS    PTSUNNY   46  40  79 SW23      29.62S
POCATELLO      CLOUDY    48  38  68 SW21      29.66S
REXBURG        CLOUDY    46  38  73 SW16      29.59F
$$

IDZ006-010-011-018-031-032-250200-
CENTRAL IDAHO MOUNTAINS


CITY           SKY/WX    TMP DP  RH WIND       PRES   REMARKS
MCCALL         LGT RAIN  42  33  70 E8        29.65S
HAILEY         MOSUNNY   50  28  43 SW13      29.61R
STANLEY          N/A     41  26  55 VRB6      29.67R
SALMON         CLOUDY    45  37  76 CALM      29.62R
CHALLIS        CLOUDY    47  38  71 N8        29.59R
$$

IDZ002-004-006-007-026-250200-
NORTHERN IDAHO


CITY           SKY/WX    TMP DP  RH WIND       PRES   REMARKS
LEWISTON       CLOUDY    54  42  64 SW3       29.67S
LOWELL           N/A     54  46  74 N3        29.66S
COEUR D`ALENE  CLOUDY    47  40  76 SW3       29.69S
MULLAN PASS    SNOW      32  32 100 NW6       29.64S VSB 1/4 WCI  26
$$



USA.gov is the U.S. government's official web portal to all federal, state and local government web resources and services.